Terminal Aerodrome Forecast
Issued by NWS Boston, MA

Home | Current Version | Previous Version | Text Only | Print | Product List | Glossary On
Versions: 1 2 3 4 5 6 7 8 9 10 11 12 13 14 15 16 17 18 19 20 21 22 23 24 25 26 27 28 29 30 31 32 33 34 35 36 37 38 39 40 41 42 43
000
FTUS41 KBOX 290522
TAFBOS
TAF
KBOS 290522Z 2906/3012 26005KT P6SM SKC
     FM291700 14006KT P6SM FEW250
     FM292000 19010KT P6SM SCT050
     FM292200 19010KT P6SM FEW200
     FM300400 23009KT P6SM SCT200=

USA.gov is the U.S. government's official web portal to all federal, state and local government web resources and services.